Hourly Data Report for October 13, 2016

All times are specified in Local Standard Time (LST). Add 1 hour to adjust for Daylight Saving Time where and when it is observed.

WINNIPEG A CS
MANITOBA

49°55'00.000" N
97°14'58.000" W
238.70 m
502S001
71849
XWG

Download Data

Hourly Data (October 2016)
Hourly Data Report for October 13, 2016
Temp Definition
°C
Dew Point Temp Definition
°C
Rel Hum Definition
%
Wind Dir Definition
10's deg

Wind Spd Definition
km/h
Visibility Definition
km
Stn Press Definition
kPa
Hmdx Definition


Wind Chill Definition


Weather Definition


TIME
00:00 -0.7 -3.3 83 20 21   99.02   -6 LegendNANA
01:00 -0.7 -3.2 83 19 20   98.97   -6 LegendNANA
02:00 -1.0 -3.2 85 19 16   98.92   -6 LegendNANA
03:00 -0.6 -3.0 84 20 21   98.89   -6 LegendNANA
04:00 -0.4 -2.9 83 21 15   98.87   -5 LegendNANA
05:00 -0.4 -2.6 85 21 12   98.90   -4 LegendNANA
06:00 -1.0 -3.0 86 22 7   98.90   -4 LegendNANA
07:00 -0.6 -2.7 86 22 8   98.91   -3 LegendNANA
08:00 -0.2 -2.3 86 22 6   98.93   -2 LegendNANA
09:00 0.7 -1.9 83 29 5   98.95     LegendNANA
10:00 2.4 -0.9 79 3 10   98.98     LegendNANA
11:00 4.9 -0.3 69 1 11   99.00     LegendNANA
12:00 5.3 -2.7 56 1 12   99.01     LegendNANA
13:00 6.3 -1.7 57 5 7   98.98     LegendNANA
14:00 6.8 -2.7 51 1 5   98.95     LegendNANA
15:00 7.3 -2.9 48 6 7   98.90     LegendNANA
16:00 7.6 -1.6 52 5 11   98.88     LegendNANA
17:00 5.9 -2.1 57 4 16   98.86     LegendNANA
18:00 2.9 -3.7 62 5 12   98.83     LegendNANA
19:00 1.0 -3.5 72 6 13   98.79     LegendNANA
20:00 0.6 -3.7 73 7 5   98.76     LegendNANA
21:00 -0.3 -5.1 70 8 6   98.74   -2 LegendNANA
22:00 0.8 -4.2 69 8 10   98.68     LegendNANA
23:00 1.4 -3.6 69 9 7   98.60     LegendNANA

Notes on Data Quality.

Legend

  • E = Estimated
  • M = Missing
  • NA = Not Available
  • ‡ = Partner data that is not subject to review by the National Climate Archives
Date modified: